User: anonymous   Login
Location: Theydon Bois
(51.6750°N, 0.1050°E)
Time: 18:57:53
(UTC+00:00)
Language:

Cosmos 1733 - Orbit

View from above orbital plane
View from above orbital plane
View from above satellite
View from above satellite

Ground track
Ground track

The orbit data is extracted from the following two-line orbital elements,

1 16611U 86018A   18053.21792251  .00000724  00000-0  35339-4 0  9994
2 16611  82.4920 151.2402 0012399 187.6713 172.4333 15.16644825746882
Epoch (UTC): 22 February 2018 05:13:48
Eccentricity: 0.0012399
inclination: 82.4920°
perigee height: 507 km
apogee height: 524 km
right ascension of ascending node: 151.2402°
argument of perigee: 187.6713°
revolutions per day: 15.16644825
mean anomaly at epoch: 172.4333°
orbit number at epoch: 74688

The dashed part of the orbit path shows where the satellite is in the earth's shadow,  

DLR